This is the latest recevied weather packets stored in our database for station/object W1LBM. If no packets are shown the sender has not sent any weather packets the latest 10 day(s).
| Time | Temp. | Humidity | Pressure | Rain* | Wind** | Luminosity | Snow |
|---|---|---|---|---|---|---|---|
| 1778097383 | 15.56° C | 93% | 1011.5 hPa | 0 mm | - | 34 W/m² | - |
| 1778097079 | 15.56° C | 92% | 1011.1 hPa | 0 mm | - | 64 W/m² | - |
| 1778096777 | 15.56° C | 91% | 1011.3 hPa | 0 mm | - | 95 W/m² | - |
| 1778096473 | 15.56° C | 90% | 1011.2 hPa | 1.27 mm | - | 152 W/m² | - |
| 1778096171 | 16.11° C | 89% | 1011.5 hPa | 1.27 mm | - | 99 W/m² | - |
| 1778095868 | 16.11° C | 86% | 1011.5 hPa | 0 mm | - | 79 W/m² | - |
| 1778095565 | 16.67° C | 86% | 1011.4 hPa | 0 mm | - | 78 W/m² | - |
| 1778095261 | 16.67° C | 84% | 1011.5 hPa | 0 mm | - | 67 W/m² | - |
| 1778094957 | 16.67° C | 83% | 1011.4 hPa | 0 mm | - | 59 W/m² | - |
| 1778094653 | 16.67° C | 82% | 1011.5 hPa | 0 mm | - | 82 W/m² | - |
| 1778094351 | 17.22° C | 80% | 1011.5 hPa | 0 mm | - | 84 W/m² | - |
| 1778094048 | 17.22° C | 79% | 1011.7 hPa | 0 mm | - | 80 W/m² | - |
| 1778093745 | 17.78° C | 77% | 1011.5 hPa | 0 mm | - | 82 W/m² | - |
| 1778093441 | 17.78° C | 76% | 1011.8 hPa | 0 mm | - | 91 W/m² | - |
| 1778093139 | 17.78° C | 75% | 1011.8 hPa | 0 mm | - | 90 W/m² | - |
| 1778092836 | 17.78° C | 74% | 1011.7 hPa | 0 mm | - | 99 W/m² | - |
| 1778092531 | 17.78° C | 74% | 1011.5 hPa | 0 mm | - | 110 W/m² | - |
| 1778092229 | 18.33° C | 74% | 1011.6 hPa | 0 mm | - | 91 W/m² | - |
| 1778091926 | 18.33° C | 73% | 1011.7 hPa | 0 mm | - | 89 W/m² | - |
| 1778091623 | 18.89° C | 72% | 1011.8 hPa | 0 mm | - | 101 W/m² | - |
| 1778091321 | 18.89° C | 72% | 1011.9 hPa | 0 mm | - | 96 W/m² | - |
| 1778091017 | 18.89° C | 71% | 1011.9 hPa | 0 mm | - | 109 W/m² | - |
| 1778090714 | 18.89° C | 70% | 1012.1 hPa | 0 mm | - | 99 W/m² | - |
| 1778090411 | 18.89° C | 70% | 1011.9 hPa | 0 mm | - | 100 W/m² | - |
| 1778090108 | 19.44° C | 69% | 1012.1 hPa | 0 mm | - | 133 W/m² | - |
* Rain latest hour (hover to see other rain measurements)
** Current wind speed in m/s (hover to see current wind gust speed)